Regional Weather Roundup
Issued by NWS

Home | Current Version | Previous Version | Text Only | Print | Product List | Glossary On
Versions: 1 2 3 4 5 6 7 8 9 10 11 12 13 14 15 16 17 18 19 20 21 22 23 24 25 26 27 28 29 30 31 32 33 34 35 36 37 38 39 40 41 42 43 44 45 46 47 48 49 50
000
ASUS43 KDTX 262301
RWRMI
MICHIGAN HOURLY REGIONAL WEATHER ROUNDUP
NATIONAL WEATHER SERVICE DETROIT/PONTIAC MI
700 PM EDT THU MAR 26 2015

NOTE: "FAIR" INDICATES FEW OR NO CLOUDS BELOW 12,000 FEET WITH NO
SIGNIFICANT WEATHER AND/OR OBSTRUCTION TO VISIBILITY.

MIZ047>049-052>055-059>063-066>070-074>076-081>083-270000-
SOUTHEAST LOWER MICHIGAN

CITY           SKY/WX    TMP DP  RH WIND       PRES   REMARKS
ADRIAN         CLOUDY    40  24  53 NW13G21   29.90R WCI  32
ALMA           CLOUDY    36  26  66 W10       29.91R WCI  28
ANN ARBOR      CLOUDY    40  24  53 NW16      29.88R WCI  31
BAD AXE        CLOUDY    36  26  69 W12G17    29.86R WCI  27
CARO           CLOUDY    37  27  69 W9        29.87R WCI  30
DETROIT CITY   CLOUDY    43  23  45 NW14G21   29.87R
DETROIT        CLOUDY    42  25  50 W14G21    29.88R
FLINT          CLOUDY    39  24  55 NW15      29.89R WCI  31
GROSSE ILE     CLOUDY    43  25  49 W9        29.86R
HILLSDALE      CLOUDY    37  23  56 NW15G23   29.90R WCI  28
HOWELL         CLOUDY    37  24  58 W10G21    29.88S WCI  30

CITY           SKY/WX    TMP DP  RH WIND       PRES   REMARKS
JACKSON        CLOUDY    37  21  52 W14G24    29.90R WCI  28
LAMBERTVILLE   CLOUDY    43  27  52 NW10G16   29.89R
LANSING        CLOUDY    36  24  62 W14       29.91R WCI  27
LAPEER         CLOUDY    37  25  60 W9G18     29.86S WCI  31
MASON          CLOUDY    36  23  58 W9G20     29.90R WCI  29
MONROE         CLOUDY    43  27  52 NW13      29.87R
MT. CLEMENS    CLOUDY    41  25  54 NW15      29.84R
PONTIAC        CLOUDY    38  23  55 W10       29.85R WCI  31
PORT HOPE        N/A     37  26  64 W9        29.83R WCI  30
PORT HURON     CLOUDY    39  27  60 NW7       29.86R WCI  34
TRI CITIES     CLOUDY    37  26  64 NW16      29.89R WCI  28
TROY           CLOUDY    41  24  50 W13       29.88R
SAGINAW HB     CLOUDY    36  27  69 W13       29.88R WCI  27
$$
MIZ043>046-050>051-056>058-064>065-071>073-077>080-270000-
SOUTHWEST LOWER MICHIGAN

CITY           SKY/WX    TMP DP  RH WIND       PRES   REMARKS
BATTLE CREEK   CLOUDY    36  23  59 NW15      29.94R WCI  27
BENTON HARBOR  CLOUDY    34  26  72 VRB5      29.99R WCI  30
BIG RAPIDS     CLOUDY    31  22  68 NW10G17   29.93R WCI  22
COLDWATER      CLOUDY    36  20  52 NW13G21   29.93S WCI  28
FREMONT        FLURRIES  31  24  77 N10       29.96R WCI  22
HOLLAND        CLOUDY    34  26  72 NW10G20   29.99R WCI  26
GRAND RAPIDS   CLOUDY    34  24  67 NW14      29.94R WCI  25
IONIA          CLOUDY    36  24  62 W13       29.92R WCI  27
KALAMAZOO      CLOUDY    36  22  56 NW15      29.95R WCI  27
LUDINGTON      CLOUDY    31  23  73 N7        29.99R WCI  24
MARSHALL       CLOUDY    35  22  58 W12       29.91S WCI  27
MOUNT PLEASANT CLOUDY    34  23  63 NW9       29.91R WCI  27
MUSKEGON       CLOUDY    33  25  72 NW12      29.98R WCI  24
SOUTH HAVEN    CLOUDY    35  28  74 NW9       29.98S WCI  28
$$
MIZ016>042-270000-
NORTHERN LOWER MICHIGAN

CITY           SKY/WX    TMP DP  RH WIND       PRES   REMARKS
ALPENA         CLOUDY    31  23  72 NW10G22   29.86R WCI  22
BEAVER ISLAND  CLOUDY    21  13  71 NW14      29.99R WCI   8
BELLAIRE       LGT SNOW  23  17  78 NW8       30.00R WCI  14
CADILLAC       FLURRIES  27  19  71 NW10G18   29.92R WCI  17
CHARLEVOIX     LGT SNOW  22  18  83 NW15G23   30.01R WCI   9
FRANKFORT      LGT SNOW  27  19  70 N6G17     30.01R WCI  21
GAYLORD        CLOUDY    21  15  78 W7G21     29.89R WCI  12
GRAYLING       LGT SNOW  24  17  76 NW13G18   29.92R WCI  12
HARBOR SPRINGS LGT SNOW  22  15  73 W13G18    29.96R WCI  10
HOUGHTON LAKE  CLOUDY    25  17  72 NW14      29.91R WCI  13
MANISTEE       CLOUDY    27  18  69 N8G17     30.00R WCI  18
OSCODA         CLOUDY    35  26  67 W16G22    29.85R WCI  26
PELLSTON       LGT SNOW  22  16  78 NW15      29.94R WCI   9
ROGERS CITY    CLOUDY    29  24  81 NW15G25   29.89R WCI  18
TRAVERSE CITY  LGT SNOW  25  17  72 N13       29.99R WCI  14
$$
MIZ007>008-015-270000-
EASTERN UPPER MICHIGAN

CITY           SKY/WX    TMP DP  RH WIND       PRES   REMARKS
KINROSS        CLOUDY    21  18  86 NW18G30   29.89R WCI   6
MACKINAC ISLAN LGT SNOW  24  17  74 NW13G21   29.92R WCI  12
NEWBERRY       LGT SNOW  19  15  88 NW12G22   29.95R VSB 1   WCI   6
S. S. MARIE    LGT SNOW  22  18  85 NW15G25   29.88R VSB 1   WCI   9
$$
MIZ004>006-011>014-085-270000-
CENTRAL UPPER MICHIGAN

CITY           SKY/WX    TMP DP  RH WIND       PRES   REMARKS
MANISTIQUE     LGT SNOW  20  14  77 NW20G26   30.00R WCI   4
ESCANABA       CLOUDY    23  10  58 N16G24    30.04R WCI  10
MENOMINEE      CLOUDY    27  10  50 N13G21    30.03R WCI  16
SAWYER-GWINN   LGT SNOW  18  12  79 N15G23    30.02R WCI   3
$$
MIZ001>003-009>011-084-270000-
WESTERN UPPER MICHIGAN

CITY           SKY/WX    TMP DP  RH WIND       PRES   REMARKS
IRON MOUNTAIN  CLOUDY    22  10  60 N12       30.02R WCI  10
HOUGHTON       SUNNY     19   6  57 NW13      30.07R WCI   6
COPPER HARBOR    N/A     20   7  57 NE16G25   30.09R WCI   6
IRONWOOD       PTSUNNY   21   7  53 NW13      30.08R WCI   9
$$

ABBREVIATIONS USED IN REMARKS
   TC - TEMPERATURE IN CELSIUS
  WCI - WIND CHILL INDEX
   HX - HEAT INDEX
  VSB - VISIBILITY




USA.gov is the U.S. government's official web portal to all federal, state and local government web resources and services.